When you browse on this site, cookies collect data to enhance your experience and personalize the content and advertising you see.
Visit our Privacy Policy to learn more. By continuing to use the site, you agree to this use of cookies and data.
  • In Slovakia
  • List of Countries
  • For 7 days
  • Water Temperature
  • Satellite Maps
  • Weather Map
  • Weather Widgets
  • user-avatar
    Login

    Hourly Weather Kranevo

    Today, 21 March, Thursday

    Time Temperature Precipitation Wind Pressure Humidity
    00:00 +8°C° 0 mm 5 mps 767 mmHg 77%
    01:00 +7°C° 0 mm 5 mps 767 mmHg 77%
    02:00 +5°C° 0 mm 6 mps 768 mmHg 75%
    03:00 +5°C° 0 mm 6 mps 768 mmHg 75%
    04:00 +4°C° 0 mm 6 mps 768 mmHg 75%
    05:00 +4°C° 0 mm 6 mps 768 mmHg 75%
    06:00 +5°C° 0 mm 6 mps 768 mmHg 72%
    07:00 +5°C° 0 mm 6 mps 768 mmHg 69%
    08:00 +7°C° 0 mm 5 mps 769 mmHg 64%
    09:00 +8°C° 0 mm 5 mps 769 mmHg 60%
    10:00 +9°C° 0 mm 5 mps 769 mmHg 56%
    11:00 +10°C° 0 mm 5 mps 769 mmHg 52%
    12:00 +11°C° 0 mm 4 mps 769 mmHg 50%
    13:00 +12°C° 0 mm 4 mps 769 mmHg 48%
    14:00 +13°C° 0 mm 4 mps 769 mmHg 47%
    15:00 +12°C° 0 mm 3 mps 768 mmHg 49%
    16:00 +11°C° 0 mm 3 mps 768 mmHg 52%
    17:00 +11°C° 0 mm 3 mps 768 mmHg 54%
    18:00 +10°C° 0 mm 2 mps 768 mmHg 58%
    19:00 +8°C° 0 mm 2 mps 768 mmHg 63%
    20:00 +8°C° 0 mm 1 mps 768 mmHg 67%
    21:00 +8°C° 0 mm 1 mps 768 mmHg 68%
    22:00 +8°C° 0 mm 1 mps 768 mmHg 69%
    23:00 +6°C° 0 mm 2 mps 768 mmHg 70%

    Tomorrow, 22 March, Friday

    Time Temperature Precipitation Wind Pressure Humidity
    00:00 +6°C° 0 mm 2 mps 768 mmHg 70%
    01:00 +6°C° 0 mm 2 mps 768 mmHg 70%
    02:00 +6°C° 0 mm 2 mps 768 mmHg 70%
    03:00 +6°C° 0 mm 2 mps 768 mmHg 69%
    04:00 +6°C° 0 mm 2 mps 768 mmHg 68%
    05:00 +6°C° 0 mm 2 mps 767 mmHg 67%
    06:00 +7°C° 0 mm 3 mps 767 mmHg 66%
    07:00 +8°C° 0 mm 3 mps 768 mmHg 66%
    08:00 +9°C° 0 mm 3 mps 768 mmHg 65%
    09:00 +10°C° 0 mm 3 mps 767 mmHg 61%
    10:00 +13°C° 0 mm 2 mps 767 mmHg 56%
    11:00 +15°C° 0 mm 2 mps 767 mmHg 51%
    12:00 +15°C° 0 mm 2 mps 767 mmHg 50%
    13:00 +15°C° 0 mm 2 mps 766 mmHg 49%
    14:00 +16°C° 0 mm 2 mps 766 mmHg 48%
    15:00 +15°C° 0 mm 2 mps 766 mmHg 50%
    16:00 +15°C° 0 mm 2 mps 765 mmHg 53%
    17:00 +14°C° 0 mm 2 mps 765 mmHg 55%
    18:00 +13°C° 0 mm 2 mps 765 mmHg 59%
    19:00 +12°C° 0 mm 2 mps 765 mmHg 63%
    20:00 +10°C° 0 mm 2 mps 765 mmHg 67%
    21:00 +10°C° 0 mm 2 mps 764 mmHg 66%
    22:00 +10°C° 0 mm 2 mps 764 mmHg 65%
    23:00 +10°C° 0 mm 3 mps 764 mmHg 63%

    Day after tomorrow, 23 March, Saturday

    Time Temperature Precipitation Wind Pressure Humidity
    00:00 +10°C° 0 mm 3 mps 764 mmHg 64%
    01:00 +11°C° 0 mm 4 mps 764 mmHg 65%
    02:00 +11°C° 0 mm 4 mps 764 mmHg 66%
    03:00 +10°C° 0 mm 4 mps 764 mmHg 72%
    04:00 +8°C° 0 mm 4 mps 764 mmHg 78%
    05:00 +7°C° 0 mm 4 mps 763 mmHg 84%
    06:00 +8°C° 0 mm 4 mps 763 mmHg 79%
    07:00 +10°C° 0 mm 3 mps 764 mmHg 73%
    08:00 +10°C° 0 mm 3 mps 764 mmHg 68%
    09:00 +10°C° 0 mm 4 mps 764 mmHg 64%
    10:00 +11°C° 0 mm 4 mps 764 mmHg 60%
    11:00 +11°C° 0 mm 4 mps 764 mmHg 56%
    12:00 +10°C° 0 mm 5 mps 764 mmHg 52%
    13:00 +12°C° 0 mm 5 mps 763 mmHg 47%
    14:00 +12°C° 0 mm 5 mps 763 mmHg 43%
    15:00 +12°C° 0 mm 4 mps 763 mmHg 40%
    16:00 +12°C° 0 mm 4 mps 763 mmHg 38%
    17:00 +12°C° 0 mm 4 mps 762 mmHg 36%
    18:00 +11°C° 0 mm 3 mps 763 mmHg 39%
    19:00 +9°C° 0 mm 2 mps 763 mmHg 43%
    20:00 +8°C° 0 mm 2 mps 763 mmHg 46%
    21:00 +7°C° 0 mm 2 mps 763 mmHg 45%
    22:00 +7°C° 0 mm 3 mps 763 mmHg 44%
    23:00 +5°C° 0 mm 3 mps 763 mmHg 43%

    24 March, Sunday

    Time Temperature Precipitation Wind Pressure Humidity
    00:00 +5°C° 0 mm 3 mps 763 mmHg 46%
    01:00 +5°C° 0 mm 4 mps 763 mmHg 48%
    02:00 +4°C° 0 mm 4 mps 763 mmHg 51%
    03:00 +4°C° 0 mm 4 mps 763 mmHg 53%
    04:00 +4°C° 0 mm 4 mps 763 mmHg 56%
    05:00 +3°C° 0 mm 3 mps 763 mmHg 58%
    06:00 +4°C° 0 mm 3 mps 763 mmHg 57%
    07:00 +5°C° 0 mm 3 mps 763 mmHg 56%
    08:00 +7°C° 0 mm 3 mps 763 mmHg 55%
    09:00 +8°C° 0 mm 3 mps 763 mmHg 51%
    10:00 +9°C° 0 mm 3 mps 763 mmHg 47%
    11:00 +10°C° 0 mm 3 mps 763 mmHg 43%
    12:00 +11°C° 0 mm 3 mps 763 mmHg 41%
    13:00 +12°C° 0 mm 3 mps 763 mmHg 40%
    14:00 +12°C° 0 mm 3 mps 762 mmHg 39%
    15:00 +12°C° 0 mm 3 mps 762 mmHg 43%
    16:00 +11°C° 0 mm 3 mps 762 mmHg 47%
    17:00 +11°C° 0 mm 3 mps 761 mmHg 51%
    18:00 +9°C° 0 mm 3 mps 761 mmHg 59%
    19:00 +8°C° 0 mm 3 mps 761 mmHg 67%
    20:00 +6°C° 0 mm 2 mps 761 mmHg 75%
    21:00 +6°C° 0 mm 2 mps 761 mmHg 76%
    22:00 +6°C° 0 mm 2 mps 761 mmHg 77%
    23:00 +6°C° 0 mm 2 mps 761 mmHg 78%

    25 March, Monday

    Time Temperature Precipitation Wind Pressure Humidity
    00:00 +6°C° 0 mm 2 mps 761 mmHg 77%
    01:00 +6°C° 0 mm 2 mps 761 mmHg 76%
    02:00 +6°C° 0 mm 2 mps 760 mmHg 75%
    03:00 +6°C° 0 mm 2 mps 760 mmHg 74%
    04:00 +6°C° 0 mm 2 mps 760 mmHg 73%
    05:00 +6°C° 0 mm 2 mps 759 mmHg 72%
    06:00 +7°C° 0 mm 2 mps 759 mmHg 68%
    07:00 +8°C° 0 mm 2 mps 759 mmHg 64%
    08:00 +9°C° 0 mm 2 mps 759 mmHg 61%
    09:00 +11°C° 0 mm 3 mps 759 mmHg 55%
    10:00 +12°C° 0 mm 3 mps 759 mmHg 49%
    11:00 +14°C° 0 mm 4 mps 758 mmHg 44%
    12:00 +15°C° 0 mm 4 mps 758 mmHg 42%
    13:00 +16°C° 0 mm 5 mps 757 mmHg 41%
    14:00 +17°C° 0 mm 5 mps 757 mmHg 39%
    15:00 +16°C° 0 mm 5 mps 756 mmHg 43%
    16:00 +15°C° 0 mm 5 mps 756 mmHg 47%
    17:00 +15°C° 0 mm 4 mps 756 mmHg 50%
    18:00 +13°C° 0 mm 4 mps 756 mmHg 56%
    19:00 +12°C° 0 mm 3 mps 756 mmHg 63%
    20:00 +11°C° 0 mm 3 mps 756 mmHg 69%
    21:00 +10°C° 0.2 mm 4 mps 756 mmHg 74%
    22:00 +8°C° 0.2 mm 5 mps 756 mmHg 79%
    23:00 +7°C° 0.2 mm 6 mps 756 mmHg 85%

    26 March, Tuesday

    Time Temperature Precipitation Wind Pressure Humidity
    00:00 +7°C° 0.1 mm 5 mps 756 mmHg 87%
    01:00 +7°C° 0.1 mm 5 mps 756 mmHg 90%
    02:00 +6°C° 0.1 mm 4 mps 756 mmHg 93%
    03:00 +6°C° 0 mm 4 mps 756 mmHg 91%
    04:00 +6°C° 0 mm 4 mps 756 mmHg 90%
    05:00 +6°C° 0 mm 4 mps 756 mmHg 88%
    06:00 +6°C° 0 mm 4 mps 756 mmHg 86%
    07:00 +7°C° 0 mm 4 mps 756 mmHg 83%
    08:00 +7°C° 0 mm 4 mps 756 mmHg 80%
    09:00 +9°C° 0 mm 3 mps 756 mmHg 72%
    10:00 +10°C° 0 mm 3 mps 756 mmHg 64%
    11:00 +12°C° 0 mm 2 mps 756 mmHg 56%
    12:00 +12°C° 0 mm 2 mps 755 mmHg 53%
    13:00 +13°C° 0 mm 2 mps 754 mmHg 50%
    14:00 +13°C° 0 mm 2 mps 754 mmHg 48%
    15:00 +12°C° 0.1 mm 3 mps 754 mmHg 50%
    16:00 +12°C° 0.1 mm 3 mps 753 mmHg 52%
    17:00 +12°C° 0.1 mm 4 mps 753 mmHg 54%
    18:00 +11°C° 0.1 mm 4 mps 753 mmHg 55%
    19:00 +9°C° 0.1 mm 5 mps 753 mmHg 56%
    20:00 +8°C° 0.1 mm 6 mps 753 mmHg 57%
    21:00 +8°C° 0 mm 6 mps 753 mmHg 57%
    22:00 +7°C° 0 mm 6 mps 752 mmHg 57%
    23:00 +5°C° 0 mm 7 mps 752 mmHg 58%
    Show more